#timestamp,LO_Frequency,Hit,StdDev 
1541228415.8,286047000.6,N
1541228435.6,286047000.9,N
1541228455.5,286047000.7,N
1541228475.3,286047001.0,N
1541228495.1,286046999.9,N
1541228515.9,286046999.8,N
1541228535.7,286047002.3,N
1541228555.6,286046999.7,N
1541228575.4,286046998.2,N
1541228595.2,286046998.5,N
1541228615.1,286046999.4,N
1541228616.0,286046999.4,N
1541228635.8,286046999.3,N
1541228655.6,286046999.6,N
1541228675.5,286046999.2,N
1541228695.3,286046999.1,N
1541228715.2,286046996.9,N
1541228735.9,286046997.3,N
1541228755.7,286046999.6,N
1541228775.6,286046997.0,N
1541228795.4,286046997.4,N
1541228815.2,286046999.3,N
1541228835.1,286046998.6,N
1541228836.0,286046998.6,N
1541228855.8,286047001.2,N
1541228875.7,286046998.7,N
1541228895.5,286046998.5,N
1541228915.3,286046999.1,N
1541228935.2,286046999.6,N
1541228955.0,286046998.9,N
1541228955.9,286046998.9,N
1541228975.7,286046998.6,N
1541228995.6,286046999.5,N
1541229015.4,286046999.6,N
1541229035.9,286046999.3,N
1541229055.7,286046998.7,N
1541229075.5,286047000.4,N
1541229095.4,286047000.3,N
1541229115.2,286046998.2,N
1541229135.0,286046999.0,N
1541229155.5,286046998.6,N
1541229175.3,286046999.1,N
1541229195.1,286046999.2,N
1541229215.9,286046999.4,N
1541229235.7,286046999.5,N
1541229255.5,286046999.6,N
1541229275.4,286046998.8,N
1541229295.2,286046996.6,Y
1541229315.1,286046998.5,P
1541229316.0,286046998.5,P
1541229335.8,286046999.1,P
1541229355.6,286047001.1,Y
1541229375.5,286047001.9,P
1541229395.3,286047002.1,N
1541229415.1,286047001.9,N
1541229435.9,286047004.0,N
1541229455.0,286047001.4,N
1541229475.6,286047002.0,N
1541229495.4,286047002.4,N
1541229515.3,286047004.2,Y
1541229535.1,286047002.8,P
1541229555.9,286047002.3,P
1541229575.7,286047002.2,P
1541229595.5,286047002.4,Y
1541229615.4,286046998.3,P
1541229635.2,286047001.2,N
1541229655.0,286046999.2,N
1541229656.0,286046999.2,N
1541229675.8,286046996.6,N
1541229695.6,286046997.8,N
1541229715.5,286046994.9,N
1541229735.3,286046997.9,N
1541229755.1,286046997.5,N
1541229775.9,286046997.2,N
1541229795.7,286046999.2,N
1541229815.8,286046997.2,N
1541229835.6,286046997.7,N
1541229855.5,286046999.5,N
1541229875.3,286046996.9,N
1541229895.1,286046999.4,N
1541229915.9,286046997.1,N
1541229935.7,286046999.1,N
1541229955.6,286046997.3,N
1541229975.4,286046996.9,N
1541229995.2,286046997.4,N
1541230015.1,286046998.0,N
1541230016.0,286046998.0,N
1541230035.8,286046998.0,N
1541230055.6,286046996.5,N
1541230075.5,286046997.3,N
1541230095.3,286046995.0,Y
1541230115.2,286046998.2,P
1541230135.0,286046998.3,P
1541230135.9,286046998.3,P
1541230155.7,286046998.2,Y
1541230175.5,286047000.8,P
1541230195.3,286047001.1,N
1541230215.2,286046999.8,N
1541230235.0,286047000.0,N
1541230235.9,286047000.0,N
1541230255.8,286047000.0,N
1541230275.6,286047002.8,Y
1541230295.4,286046999.9,P
1541230315.3,286047000.2,P
1541230335.1,286046999.9,N
1541230355.9,286047000.6,Y
1541230375.7,286046999.9,P
1541230395.5,286046999.9,N
1541230415.4,286047000.2,P
1541230435.2,286047002.4,Y
1541230455.1,286047002.6,P
1541230456.0,286047002.6,N
1541230475.8,286047002.5,N
1541230495.6,286047001.6,N
1541230515.5,286047004.4,Y
1541230535.3,286047002.5,P
1541230555.2,286047002.4,P
1541230575.9,286047002.6,P
1541230595.7,286047000.3,N
1541230615.6,286047000.5,N
1541230635.4,286047000.9,N
1541230655.2,286046998.6,N
1541230675.1,286047000.6,N
1541230676.0,286047000.6,N
1541230695.8,286047001.1,N
1541230715.7,286047000.9,N
1541230735.5,286047000.9,N
1541230755.3,286047000.0,N
1541230775.2,286047000.0,N
1541230795.0,286047000.6,N
1541230795.9,286047000.6,N
1541230815.8,286047000.5,N
1541230835.6,286047002.6,N
1541230855.4,286047000.0,N
1541230875.3,286047000.2,N
1541230895.1,286047000.0,N
1541230915.9,286047000.9,N
1541230935.7,286047000.4,N
1541230955.5,286047000.0,N
1541230975.4,286047000.4,N
1541230995.2,286047000.7,N
1541231015.0,286046999.9,N
1541231015.9,286046999.9,N
1541231035.8,286047000.0,N
1541231055.6,286047001.2,N
1541231075.5,286046999.1,N
1541231095.3,286046998.3,N
1541231115.1,286046996.6,Y
1541231135.9,286046996.7,P
1541231155.7,286046996.7,N
1541231175.6,286046997.1,N
1541231195.4,286046997.3,N
1541231215.2,286046996.7,N
1541231235.1,286046995.6,Y
1541231236.0,286046995.6,P
1541231255.8,286046997.2,P
1541231275.7,286046997.4,P
1541231295.5,286046996.9,Y
1541231315.3,286047002.1,P
1541231335.2,286047001.6,N
1541231355.0,286047002.8,N
1541231355.9,286047002.8,N
1541231375.8,286047000.1,N
1541231395.6,286047000.5,N
1541231415.4,286046998.5,N
1541231435.3,286047001.2,N
1541231455.1,286046998.5,N
1541231475.8,286046999.6,N
1541231495.7,286046999.0,N
1541231515.7,286047000.9,N
1541231535.6,286046998.5,N
1541231555.4,286046998.8,N
1541231575.3,286046997.0,N
1541231595.1,286046999.1,N
1541231596.0,286046999.1,N
1541231615.8,286046999.3,N
1541231635.7,286046998.2,N
1541231655.5,286046999.0,N
1541231675.3,286047000.8,N
1541231695.2,286046998.7,N
1541231715.0,286047001.1,N
1541231715.9,286047001.1,N
1541231735.8,286047000.8,N
1541231755.6,286046998.6,N
1541231775.4,286047000.6,N
1541231795.3,286046998.2,N
1541231815.1,286047000.8,N
1541231835.9,286046998.5,N
1541231855.7,286047000.5,N
1541231875.5,286047000.7,N
1541231895.4,286046998.9,N
1541231915.2,286047001.2,N
1541231935.0,286047000.5,N
1541231955.9,286047000.9,N
1541231975.7,286047002.3,N
1541231995.5,286047000.0,N
